Regional Weather Roundup
Issued by NWS

Home | Current Version | Previous Version | Text Only | Print | Product List | Glossary On
Versions: 1 2 3 4 5 6 7 8 9 10 11 12 13 14 15 16 17 18 19 20 21 22 23 24 25 26 27 28 29 30 31 32 33 34 35 36 37 38 39 40 41 42 43 44 45 46 47 48 49 50
000
ASUS45 KBOI 240210
RWRID

IDAHO REGIONAL WEATHER ROUNDUP
NATIONAL WEATHER SERVICE BOISE ID
800 PM MDT TUE JUL 23 2019

NOTE: "FAIR" INDICATES FEW OR NO CLOUDS BELOW 12000 FEET
WITH NO SIGNIFICANT WEATHER AND/OR OBSTRUCTIONS TO VISIBILITY

IDZ012-014-240300-
SOUTHWEST IDAHO


CITY           SKY/WX    TMP DP  RH WIND       PRES   REMARKS
BOISE          PTSUNNY   85  51  31 NW8       30.01S
CALDWELL       PTSUNNY   79  59  50 NE5       29.99F
$$

IDZ016-017-240300-
SOUTHCENTRAL IDAHO


CITY           SKY/WX    TMP DP  RH WIND       PRES   REMARKS
BURLEY         CLOUDY    80  49  33 SW12      30.09F
JEROME         CLOUDY    83  53  35 SE10G25   30.08S
TWIN FALLS     CLOUDY    83  48  29 S20G26    30.05F
$$

IDZ019>023-240300-
SOUTHEAST IDAHO


CITY           SKY/WX    TMP DP  RH WIND       PRES   REMARKS
IDAHO FALLS    CLOUDY    76  52  43 NW12      30.13R
POCATELLO      CLOUDY    79  50  36 SW9       30.16R
REXBURG        CLOUDY    81  55  40 NW7       30.13R
$$

IDZ006-010-011-018-031-032-240300-
CENTRAL IDAHO MOUNTAINS


CITY           SKY/WX    TMP DP  RH WIND       PRES   REMARKS
MCCALL         CLOUDY    69  51  52 S6        30.16S
HAILEY         MOSUNNY   73  55  53 S3        30.21
STANLEY          N/A     71  50  47 SW5       30.29F
SALMON         LGT RAIN  71  57  61 CALM      30.19S
CHALLIS        CLOUDY    77  51  40 N7        30.22F
$$

IDZ002-004-006-007-026-240300-
NORTHERN IDAHO


CITY           SKY/WX    TMP DP  RH WIND       PRES   REMARKS
LEWISTON       PTSUNNY   96  46  18 NW5       29.79F HX  92
LOWELL           N/A     86  49  27 VRB6      29.89F
COEUR D`ALENE  SUNNY     92  47  21 W9        29.88S
MULLAN PASS    PTSUNNY   72  45  37 VRB7      30.16F
$$




USA.gov is the U.S. government's official web portal to all federal, state and local government web resources and services.